User: anonymous   Login
Location: Unspecified
(0.0000°N, 0.0000°E)
Time: 12:49:55
(UTC+00:00)
Language:

JUGNU - Orbit

View from above orbital plane
View from above orbital plane
View from above satellite
View from above satellite

Ground track
Ground track

The orbit data is extracted from the following two-line orbital elements,

1 37839U 11058B   19085.17990340  .00000305  00000-0  20968-4 0  9998
2 37839  19.9605 127.2632 0018965 114.2212 287.2169 14.12645084385294
Epoch (UTC): 26 March 2019 04:19:03
Eccentricity: 0.0018965
inclination: 19.9605°
perigee height: 836 km
apogee height: 864 km
right ascension of ascending node: 127.2632°
argument of perigee: 114.2212°
revolutions per day: 14.12645084
mean anomaly at epoch: 287.2169°
orbit number at epoch: 38529

The dashed part of the orbit path shows where the satellite is in the earth's shadow,  

DLR